Location: Maccacari
(45.1333°N, 11.1333°E)
Time: 02:31:21
(UTC+00:00)

Altair - Pass Details

Date: 24 January 2021
Orbit: 1501 x 1682 km, 47.2° (Epoch: 01 March)

Event Time Altitude Azimuth Distance (km) Brightness Sun altitude
Rises 11:15:05 0° 294° (WNW) 4,939 9.9 25.7°
Reaches altitude 10° 11:18:34 10° 287° (WNW) 3,942 9.5 25.7°
Maximum altitude 11:27:29 37° 225° (SW) 2,366 9.5 25.8°
Drops below altitude 10° 11:36:11 10° 162° (SSE) 3,836 11.0 25.8°
Sets 11:39:33 0° 154° (SSE) 4,793 11.0 25.7°
